Regional Weather Roundup
Issued by NWS Jackson, KY

Home | Current Version | Previous Version | Text Only | Print | Product List | Glossary Off
Versions: 1 2 3 4 5 6 7 8 9 10 11 12 13 14 15 16 17 18 19 20 21 22 23 24 25 26 27 28 29 30 31 32 33 34 35 36 37 38 39 40 41 42 43 44 45 46 47 48 49 50

000
ASUS43 KJKL 301410
RWRJKL

EAST KENTUCKY HOURLY WEATHER ROUNDUP
NATIONAL WEATHER SERVICE JACKSON KY
1000 AM EDT FRI SEP 30 2016

NOTE: "FAIR" INDICATES FEW OR NO CLOUDS BELOW 12,000 FEET WITH
NO SIGNIFICANT WEATHER AND/OR OBSTRUCTIONS TO VISIBILITY.

* THESE REPORTS ARE NOT UNDER NWS QUALITY CONTROL AND MAY NOT
  REPORT WEATHER SUCH AS PRECIPITATION AND FOG.

KYZ079-080-083-085-087-088-110-112-115-119-120-301500
...EASTERN KENTUCKY...

CITY           SKY/WX    TMP DP  RH WIND       PRES   REMARKS
JACKSON        FOG       53  53 100 CALM      30.05R VSB<1/4
LONDON         CLOUDY    51  49  92 SW3       30.07R FOG
SOMERSET*      CLOUDY    52  52 100 SW6       30.08R
MONTICELLO*    CLOUDY    53  52  96 NW8       30.09R
WILLIAMSBURG*  CLOUDY    48  48 100 CALM      30.07S VSB<1/4
MIDDLESBORO*   MOSUNNY   55  50  84 CALM      30.07R
HARLAN APT*    CLOUDY    54  50  87 CALM      30.06R
PIKE CO APT*   FOG       54  54 100 CALM      30.04R VSB 1/4
MOREHEAD APT*  FOG       55  54  94 SW5       30.05S VSB 3/4
ASHLAND*       CLOUDY    59  57  94 W3        30.01R
$$

KYZ035-036-041-042-044-050-067-078-099-301500
...CENTRAL KENTUCKY...

CITY           SKY/WX    TMP DP  RH WIND       PRES   REMARKS
MT STERLING*   FOG       54  54 100 W3        30.06S VSB 3/4
FLEMING/MASON* CLOUDY    55  54  97 W6        30.05R FOG
DANVILLE*      CLOUDY    52  52 100 S5        30.07S FOG
LEXINGTON      CLOUDY    55  52  89 W6        30.05R FOG
FRANKFORT      CLOUDY    57  53  86 CALM      30.03S
LOUISVILLE     LGT RAIN  57  53  86 S5        30.04R
LEBANON*       CLOUDY    54  54 100 S3        30.06R FOG
GLASGOW*       RAIN      51  51 100 CALM      30.05S
BOWLING GREEN  LGT RAIN  53  52  96 S3        30.05S FOG
$$

KYZ091>093-OHZ055-061-077-WVZ005-015-034-035-042-301500
...SOUTHERN OHIO/WEST VIRGINIA...

CITY           SKY/WX    TMP DP  RH WIND       PRES   REMARKS
COLUMBUS       CLOUDY    61  60  97 E6        30.06R
DAYTON         LGT RAIN  61  60  97 E10       30.04S
WILMINGTON     CLOUDY    58  57  97 N3        30.03S
HUNTINGTON     CLOUDY    59  57  93 W3        30.02R FOG
CHARLESTON     CLOUDY    61  58  90 SE3       30.02R FOG
PINEVILLE*     CLOUDY    60  57  90 MISG      30.06S
BECKLEY        CLOUDY    61  59  93 CALM      30.05R
BLUEFIELD      PTSUNNY   62  57  83 SE8G18    30.06R
LOGAN CO APT*  FOG       57  57 100 CALM      30.02S VSB<1/4
$$

VAZ002-007-008-TNZ017-027-036-066-071-301500
...SOUTHWEST VIRGINIA/EAST TENNESSEE...

CITY           SKY/WX    TMP DP  RH WIND       PRES   REMARKS
WISE*          FOG       54  52  94 CALM      30.06R VSB 1/4
JONESVILLE*    CLOUDY    55  50  82 CALM      30.07S
ABINGDON*      CLOUDY    57  57 100 W5        30.05R FOG
BRISTOL        CLOUDY    58  54  86 SW3       30.04R
MORRISTOWN*    CLOUDY    59  52  77 CALM      30.04S
SEVIERVILLE*   CLOUDY    55  48  76 W5        30.05R
KNOXVILLE      MOSUNNY   55  50  83 SW6       30.05R
OAK RIDGE      SUNNY     56  48  74 CALM      30.07S
CROSSVILLE     PTSUNNY   52  49  89 W7        30.08R
NASHVILLE      CLOUDY    59  55  87 W3        30.07F
$$

...KEY TO REMARKS...
VSB - VISIBILITY IN MILES
WCI - WIND CHILL INDEX
HX  - HEAT INDEX

$$



USA.gov is the U.S. government's official web portal to all federal, state and local government web resources and services.